SL-14 DEB, 45293

Orbit data source: Space-Track

SL-14 DEB, 45293 is space debris in LEO originally from a launch on Thu, 15 Aug 1991 UTC launched from the Plesetsk Missile And Space Complex (PKMTR). Debris objects in space refer to the collection of defunct objects orbiting the Earth. Examples of debris include non-operational satellites, rocket bodies, and fragments generated from explosions, collisions, or faulty payload assembly.

Loading next visibility...
Identifier
45293, 1991-056AF
Orbit
LEO
Country
Flag of CISCIS
Related business
Manufacturer
Unknown
Mission
Spacecraft
Bus & Motor
Unknown
Mass
Unknown
Launch date (UTC)
1991-08-15 (34 years ago)
Launch vehicle
Unknown
Launch site
Plesetsk Missile And Space Complex (PKMTR)
Object type
Payload
Rocket body
Debris
Shape & HBR
Unknown
Radar Cross Section
Small (<0.1 m²)

Expand to show TLE details & history
Last TLE update: 4 days ago

TLE from 4 days ago
0 SL-14 DEB
1 45293U 91056AF  25255.21805875  .00015473  00000-0  61406-2 0  9998
2 45293  82.5217 180.3709 0120840 237.1063 121.8448 14.24773467279365
Epoch: 2025-09-12T05:14Z
TLE epoch observation values (Epoch: 2025-09-12T05:14:00.276Z)
Latitude
0.00006°
Longitude
110.40083°
Altitude
858.797 km
Speed
7.399 km/s
True Right ascension
12h 01m 29s
True Declination
0° 00' 00"
Sunlit
Object was in daylight at epoch
Visualization orbit readout
Latitude
Unknown
Longitude
Unknown
Altitude
Unknown
Speed
Unknown
Apparent Right ascension
Unknown
Apparent Declination
Unknown
Sunlit
N/A
Visualization observer readout
Local Sidereal Time
02:58:43
Azimuth
Unknown
Elevation
Unknown
Doppler factor
Unknown
Orbital elements
Apogee altitude
893.168 km
Perigee altitude
719.534 km
Semi-major axis
7,184.488 km
Eccentricity
0.01208
Inclination
82.5217°
RAAN
180.3709°
Arg. of periapsis
237.1063°
True anomaly
123.01171°
Mean anomaly
121.8448°
Eccentric anomaly
122.42919°
Mean motion
3.5641 °/min
Orbital period
101.01 mins
BSTAR
0.0061406
Loading maneuver chart data...
Computing Atmospheric mass density...
Loading historical data...
Loading historical data...
Loading historical data...
Loading historical data...
Loading historical data...
Loading historical data...
Loading historical data...

Documentation

Showing up to 5 results
|